FDX2289 KMEM-KBNA

Flight info

Callsign FDX2289
Flight time 0h 47m
Altitude 22000
Route GOETZ7 DIYAB CHSNE CHSNE2
Aircraft B763/H-SDE3FGHIM3RWXY/LB1

Departure

Time 2026-05-06 01:08
Airport Memphis International Airport (KMEM)

Arrival

Time 2026-05-06 01:55
Airport Nashville International Airport (KBNA)
Time Latitude Longitude Altitude Speed Heading
2026-05-06 00:39 35.06103 -89.96174 332 ft 0 kts
2026-05-06 00:52 35.06088 -89.96175 331 ft 3 kts
2026-05-06 00:52 35.06068 -89.96169 332 ft 3 kts 306°
2026-05-06 00:53 35.06062 -89.96154 331 ft 0 kts 273°
2026-05-06 00:55 35.06061 -89.96164 331 ft 7 kts 266°
2026-05-06 00:56 35.06048 -89.96227 333 ft 8 kts 257°
2026-05-06 00:56 35.06044 -89.96283 336 ft 6 kts 269°
2026-05-06 00:56 35.06045 -89.96329 336 ft 11 kts 271°
2026-05-06 00:56 35.06046 -89.96427 336 ft 11 kts 268°
2026-05-06 00:57 35.06033 -89.96475 331 ft 2 kts 226°
2026-05-06 00:57 35.05974 -89.96530 331 ft 19 kts 215°
2026-05-06 00:57 35.05921 -89.96639 331 ft 14 kts 264°
2026-05-06 00:57 35.05921 -89.96745 332 ft 11 kts 271°
2026-05-06 00:58 35.05923 -89.96832 332 ft 9 kts 271°
2026-05-06 00:58 35.05925 -89.96914 336 ft 10 kts 272°
2026-05-06 00:58 35.05928 -89.96987 336 ft 8 kts 272°
2026-05-06 00:58 35.05930 -89.97043 336 ft 7 kts 272°
2026-05-06 00:59 35.05929 -89.97129 334 ft 9 kts 259°
2026-05-06 00:59 35.05882 -89.97184 330 ft 7 kts 201°
2026-05-06 00:59 35.05798 -89.97192 333 ft 13 kts 181°
2026-05-06 00:59 35.05728 -89.97194 333 ft 0 kts 181°
2026-05-06 01:01 35.05708 -89.97195 329 ft 11 kts 183°
2026-05-06 01:01 35.05629 -89.97252 333 ft 16 kts 231°
2026-05-06 01:01 35.05577 -89.97343 332 ft 11 kts 236°
2026-05-06 01:01 35.05544 -89.97402 336 ft 6 kts 236°
2026-05-06 01:02 35.05528 -89.97432 331 ft 2 kts 235°
2026-05-06 01:02 35.05499 -89.97482 330 ft 11 kts 234°
2026-05-06 01:02 35.05492 -89.97493 330 ft 0 kts 234°
2026-05-06 01:07 35.05486 -89.97504 330 ft 10 kts 234°
2026-05-06 01:07 35.05390 -89.97611 326 ft 17 kts 191°
2026-05-06 01:07 35.05206 -89.97608 326 ft 58 kts 179°
2026-05-06 01:07 35.04514 -89.97598 327 ft 139 kts 178°
2026-05-06 01:08 35.03291 -89.97557 521 ft 206 kts 179°
2026-05-06 01:08 35.01683 -89.97467 1022 ft 250 kts 178°
2026-05-06 01:08 34.99851 -89.97354 1513 ft 278 kts 178°
2026-05-06 01:08 34.97892 -89.96858 1899 ft 287 kts 165°
2026-05-06 01:09 34.96152 -89.95918 2374 ft 263 kts 151°
2026-05-06 01:09 34.94965 -89.94355 2955 ft 255 kts 133°
2026-05-06 01:09 34.94023 -89.92420 3605 ft 269 kts 123°
2026-05-06 01:09 34.93312 -89.90255 4214 ft 280 kts 114°
2026-05-06 01:10 34.92786 -89.87944 4640 ft 294 kts 103°
2026-05-06 01:10 34.92884 -89.85381 4848 ft 305 kts 79°
2026-05-06 01:10 34.93483 -89.82890 4971 ft 307 kts 72°
2026-05-06 01:10 34.94264 -89.80482 5007 ft 304 kts 63°
2026-05-06 01:11 34.95333 -89.78298 5017 ft 305 kts 57°
2026-05-06 01:11 34.96425 -89.76083 5005 ft 304 kts 60°
2026-05-06 01:11 34.97456 -89.73858 4991 ft 302 kts 61°
2026-05-06 01:11 34.98484 -89.71666 5289 ft 294 kts 60°
2026-05-06 01:12 34.99508 -89.69470 5823 ft 301 kts 60°
2026-05-06 01:12 35.00557 -89.67237 6327 ft 307 kts 59°
2026-05-06 01:12 35.01633 -89.64969 6740 ft 311 kts 59°
2026-05-06 01:12 35.02701 -89.62687 6940 ft 314 kts 60°
2026-05-06 01:13 35.03787 -89.60365 7026 ft 316 kts 60°
2026-05-06 01:13 35.04871 -89.58049 7062 ft 314 kts 59°
2026-05-06 01:13 35.05958 -89.55741 7081 ft 313 kts 59°
2026-05-06 01:13 35.07035 -89.53443 7081 ft 313 kts 59°
2026-05-06 01:14 35.09175 -89.48861 7326 ft 304 kts 59°
2026-05-06 01:14 35.10239 -89.46583 7851 ft 312 kts 59°
2026-05-06 01:14 35.11308 -89.44290 8348 ft 316 kts 58°
2026-05-06 01:15 35.12427 -89.41916 8871 ft 320 kts 58°
2026-05-06 01:15 35.13516 -89.39570 9372 ft 324 kts 58°
2026-05-06 01:15 35.14638 -89.37160 9868 ft 326 kts 57°
2026-05-06 01:15 35.15768 -89.34742 10330 ft 330 kts 57°
2026-05-06 01:16 35.16904 -89.32291 10805 ft 334 kts 56°
2026-05-06 01:16 35.18062 -89.29804 11278 ft 338 kts 56°
2026-05-06 01:16 35.19226 -89.27302 11757 ft 341 kts 55°
2026-05-06 01:16 35.20388 -89.24740 12265 ft 346 kts 56°
2026-05-06 01:17 35.21493 -89.22109 12771 ft 351 kts 58°
2026-05-06 01:17 35.22368 -89.19284 13278 ft 360 kts 70°
2026-05-06 01:17 35.23079 -89.16316 13780 ft 365 kts 68°
2026-05-06 01:17 35.23517 -89.13229 14248 ft 375 kts 90°
2026-05-06 01:18 35.23091 -89.10146 14748 ft 375 kts 114°
2026-05-06 01:18 35.21841 -89.07385 15273 ft 367 kts 137°
2026-05-06 01:18 35.20037 -89.05240 15743 ft 364 kts 148°
2026-05-06 01:18 35.18066 -89.03265 15913 ft 366 kts 150°
2026-05-06 01:19 35.16071 -89.01326 15983 ft 364 kts 150°
2026-05-06 01:19 35.14100 -88.99388 15994 ft 364 kts 148°
2026-05-06 01:19 35.12248 -88.97275 16002 ft 366 kts 143°
2026-05-06 01:19 35.10442 -88.95153 16007 ft 364 kts 145°
2026-05-06 01:20 35.08563 -88.93013 16027 ft 365 kts 145°
2026-05-06 01:20 35.06709 -88.90896 16032 ft 365 kts 144°
2026-05-06 01:20 35.04892 -88.88805 16034 ft 365 kts 144°
2026-05-06 01:20 35.03041 -88.86683 16035 ft 364 kts 144°
2026-05-06 01:21 35.01187 -88.84566 16040 ft 364 kts 144°
2026-05-06 01:21 34.99340 -88.82457 16043 ft 364 kts 144°
2026-05-06 01:21 34.97503 -88.80352 16020 ft 364 kts 144°
2026-05-06 01:21 34.95640 -88.78227 16032 ft 367 kts 144°
2026-05-06 01:22 34.93780 -88.76094 16054 ft 367 kts 145°
2026-05-06 01:22 34.91929 -88.74016 16058 ft 367 kts 144°
2026-05-06 01:22 34.90080 -88.71874 16058 ft 367 kts 141°
2026-05-06 01:22 34.88599 -88.69310 16192 ft 375 kts 115°
2026-05-06 01:23 34.87943 -88.66230 16782 ft 381 kts 92°
2026-05-06 01:23 34.88157 -88.63022 17374 ft 385 kts 69°
2026-05-06 01:23 34.89213 -88.60059 17981 ft 380 kts 47°
2026-05-06 01:23 34.90957 -88.57745 18544 ft 364 kts 25°
2026-05-06 01:24 34.93028 -88.56054 19063 ft 360 kts 21°
2026-05-06 01:24 34.95146 -88.54408 19530 ft 361 kts 21°
2026-05-06 01:24 34.96540 -88.53298 19841 ft 362 kts 22°
2026-05-06 01:24 34.99308 -88.51001 20484 ft 366 kts 27°
2026-05-06 01:25 35.00646 -88.49647 20807 ft 373 kts 33°
2026-05-06 01:25 35.03231 -88.46813 21484 ft 386 kts 32°
2026-05-06 01:25 35.04626 -88.45351 21843 ft 399 kts 32°
2026-05-06 01:25 35.07486 -88.42288 22543 ft 426 kts 33°
2026-05-06 01:26 35.08986 -88.40679 22702 ft 444 kts 34°
2026-05-06 01:26 35.11363 -88.38130 22824 ft 463 kts 34°
2026-05-06 01:26 35.13813 -88.35498 22842 ft 464 kts 34°
2026-05-06 01:26 35.16211 -88.32931 22829 ft 460 kts 34°
2026-05-06 01:27 35.18641 -88.30329 22830 ft 457 kts 34°
2026-05-06 01:27 35.21000 -88.27799 22834 ft 458 kts 34°
2026-05-06 01:27 35.23401 -88.25219 22840 ft 458 kts 34°
2026-05-06 01:27 35.25800 -88.22645 22862 ft 460 kts 35°
2026-05-06 01:28 35.28195 -88.20060 22849 ft 460 kts 35°
2026-05-06 01:28 35.30603 -88.17468 22845 ft 459 kts 35°
2026-05-06 01:28 35.32992 -88.14887 22848 ft 458 kts 35°
2026-05-06 01:28 35.35356 -88.12342 22866 ft 460 kts 35°
2026-05-06 01:29 35.37755 -88.09751 22858 ft 460 kts 35°
2026-05-06 01:29 35.40147 -88.07163 22855 ft 459 kts 35°
2026-05-06 01:29 35.42528 -88.04591 22860 ft 458 kts 35°
2026-05-06 01:29 35.44931 -88.01995 22853 ft 458 kts 35°
2026-05-06 01:30 35.47306 -87.99416 22853 ft 459 kts 35°
2026-05-06 01:30 35.49717 -87.96799 22525 ft 459 kts 36°
2026-05-06 01:30 35.52084 -87.94232 22163 ft 452 kts 36°
2026-05-06 01:30 35.54430 -87.91685 21781 ft 446 kts 36°
2026-05-06 01:31 35.56730 -87.89186 21433 ft 441 kts 36°
2026-05-06 01:31 35.58995 -87.86718 21082 ft 435 kts 35°
2026-05-06 01:31 35.61242 -87.84273 20743 ft 430 kts 35°
2026-05-06 01:31 35.63471 -87.81846 20309 ft 427 kts 35°
2026-05-06 01:32 35.65634 -87.79476 19968 ft 391 kts 35°
2026-05-06 01:32 35.67687 -87.77248 19443 ft 404 kts 34°
2026-05-06 01:32 35.69819 -87.74938 18620 ft 402 kts 36°
2026-05-06 01:32 35.71831 -87.72704 17685 ft 381 kts 34°
2026-05-06 01:33 35.73780 -87.70525 16821 ft 388 kts 42°
2026-05-06 01:33 35.75466 -87.67822 16040 ft 407 kts 54°
2026-05-06 01:33 35.76911 -87.64874 15235 ft 411 kts 58°
2026-05-06 01:33 35.78240 -87.61649 14555 ft 422 kts 67°
2026-05-06 01:34 35.79232 -87.58279 13917 ft 428 kts 68°
2026-05-06 01:34 35.80309 -87.54851 13201 ft 432 kts 67°
2026-05-06 01:34 35.81388 -87.51375 12531 ft 434 kts 68°
2026-05-06 01:34 35.82437 -87.47906 12233 ft 426 kts 67°
2026-05-06 01:35 35.83691 -87.44664 12077 ft 413 kts 61°
2026-05-06 01:35 35.84928 -87.41543 11987 ft 400 kts 63°
2026-05-06 01:35 35.86127 -87.38473 11676 ft 395 kts 60°
2026-05-06 01:35 35.87731 -87.35768 11335 ft 386 kts 39°
2026-05-06 01:36 35.89811 -87.33732 10986 ft 379 kts 31°
2026-05-06 01:36 35.91963 -87.31872 10621 ft 377 kts 30°
2026-05-06 01:36 35.94114 -87.30077 10252 ft 375 kts 30°
2026-05-06 01:36 35.96261 -87.28300 9901 ft 374 kts 30°
2026-05-06 01:37 35.98440 -87.26497 9468 ft 367 kts 30°
2026-05-06 01:37 36.00471 -87.24780 9037 ft 349 kts 33°
2026-05-06 01:37 36.02311 -87.22920 8745 ft 339 kts 37°
2026-05-06 01:37 36.04106 -87.21065 8648 ft 332 kts 36°
2026-05-06 01:38 36.05885 -87.19263 8303 ft 334 kts 36°
2026-05-06 01:38 36.07694 -87.17434 7933 ft 336 kts 36°
2026-05-06 01:38 36.09485 -87.15604 7548 ft 332 kts 36°
2026-05-06 01:38 36.11255 -87.13801 7205 ft 334 kts 36°
2026-05-06 01:39 36.13058 -87.11971 6839 ft 336 kts 37°
2026-05-06 01:39 36.14868 -87.10124 6488 ft 338 kts 37°
2026-05-06 01:39 36.16685 -87.08271 6212 ft 338 kts 37°
2026-05-06 01:39 36.18483 -87.06442 6075 ft 331 kts 37°
2026-05-06 01:40 36.20246 -87.04649 6010 ft 324 kts 37°
2026-05-06 01:40 36.21954 -87.02894 6003 ft 316 kts 37°
2026-05-06 01:40 36.23482 -87.00952 5957 ft 318 kts 58°
2026-05-06 01:40 36.24397 -86.98460 6001 ft 317 kts 72°
2026-05-06 01:41 36.25094 -86.95869 6004 ft 317 kts 74°
2026-05-06 01:41 36.25738 -86.93264 5982 ft 317 kts 75°
2026-05-06 01:41 36.26356 -86.90634 5963 ft 318 kts 76°
2026-05-06 01:41 36.26962 -86.88031 5950 ft 311 kts 76°
2026-05-06 01:42 36.27561 -86.85460 5946 ft 309 kts 76°
2026-05-06 01:42 36.28161 -86.82900 5957 ft 311 kts 76°
2026-05-06 01:42 36.28760 -86.80363 5965 ft 311 kts 76°
2026-05-06 01:42 36.29364 -86.77796 5962 ft 310 kts 75°
2026-05-06 01:43 36.29963 -86.75224 5967 ft 311 kts 76°
2026-05-06 01:43 36.30563 -86.72646 5961 ft 312 kts 76°
2026-05-06 01:43 36.31168 -86.70067 5975 ft 309 kts 76°
2026-05-06 01:43 36.31791 -86.67515 5972 ft 309 kts 75°
2026-05-06 01:44 36.32401 -86.64941 5995 ft 313 kts 75°
2026-05-06 01:44 36.33008 -86.62359 6000 ft 312 kts 76°
2026-05-06 01:44 36.33607 -86.59798 5992 ft 309 kts 75°
2026-05-06 01:44 36.34205 -86.57233 5993 ft 309 kts 76°
2026-05-06 01:45 36.34797 -86.54685 5898 ft 313 kts 76°
2026-05-06 01:45 36.35401 -86.52127 5677 ft 310 kts 75°
2026-05-06 01:45 36.36004 -86.49593 5466 ft 310 kts 75°
2026-05-06 01:45 36.36633 -86.47025 5251 ft 310 kts 71°
2026-05-06 01:46 36.37747 -86.44758 5015 ft 309 kts 43°
2026-05-06 01:46 36.39475 -86.43293 4855 ft 299 kts 15°
2026-05-06 01:46 36.41459 -86.42868 4676 ft 287 kts 348°
2026-05-06 01:46 36.43328 -86.43531 4506 ft 271 kts 319°
2026-05-06 01:47 36.44620 -86.45053 4316 ft 253 kts 290°
2026-05-06 01:47 36.45089 -86.47074 4166 ft 234 kts 259°
2026-05-06 01:47 36.44823 -86.48996 4074 ft 229 kts 250°
2026-05-06 01:47 36.44391 -86.50902 4051 ft 229 kts 248°
2026-05-06 01:48 36.43783 -86.52729 4041 ft 228 kts 237°
2026-05-06 01:48 36.42927 -86.54381 4019 ft 228 kts 222°
2026-05-06 01:48 36.41583 -86.55395 4074 ft 229 kts 205°
2026-05-06 01:48 36.40116 -86.56150 4048 ft 224 kts 202°
2026-05-06 01:49 36.38632 -86.56629 3984 ft 217 kts 195°
2026-05-06 01:49 36.37180 -86.56979 3970 ft 208 kts 194°
2026-05-06 01:49 36.35785 -86.57298 3980 ft 200 kts 194°
2026-05-06 01:49 36.34446 -86.57604 4022 ft 191 kts 195°
2026-05-06 01:50 36.33137 -86.57915 4099 ft 194 kts 196°
2026-05-06 01:50 36.31818 -86.58290 4094 ft 193 kts 199°
2026-05-06 01:50 36.30559 -86.58744 4045 ft 186 kts 202°
2026-05-06 01:50 36.29364 -86.59270 3800 ft 179 kts 204°
2026-05-06 01:51 36.28330 -86.59770 3547 ft 173 kts 204°
2026-05-06 01:51 36.27240 -86.60305 3352 ft 165 kts 203°
2026-05-06 01:51 36.26191 -86.60813 3149 ft 158 kts 201°
2026-05-06 01:51 36.25204 -86.61237 2994 ft 144 kts 198°
2026-05-06 01:52 36.24294 -86.61575 2830 ft 133 kts 197°
2026-05-06 01:52 36.23424 -86.61887 2630 ft 128 kts 197°
2026-05-06 01:52 36.22570 -86.62211 2444 ft 129 kts 198°
2026-05-06 01:52 36.21704 -86.62556 2254 ft 134 kts 197°
2026-05-06 01:53 36.20812 -86.62933 2117 ft 133 kts 197°
2026-05-06 01:53 36.19954 -86.63268 1911 ft 134 kts 195°
2026-05-06 01:53 36.19051 -86.63640 1766 ft 138 kts 195°
2026-05-06 01:53 36.18141 -86.64017 1590 ft 140 kts 195°
2026-05-06 01:54 36.17201 -86.64392 1397 ft 145 kts 194°
2026-05-06 01:54 36.16224 -86.64765 1216 ft 151 kts 195°
2026-05-06 01:54 36.15206 -86.65161 995 ft 156 kts 198°
2026-05-06 01:54 36.14203 -86.65592 805 ft 150 kts 197°
2026-05-06 01:55 36.13183 -86.65998 579 ft 156 kts 197°
2026-05-06 01:55 36.12226 -86.66382 577 ft 106 kts 198°
2026-05-06 01:55 36.11860 -86.66534 586 ft 21 kts 207°
2026-05-06 01:55 36.11831 -86.66597 587 ft 3 kts 287°
2026-05-06 01:56 36.11861 -86.66646 586 ft 0 kts 320°
2026-05-06 01:57 36.11862 -86.66647 586 ft 3 kts 322°
2026-05-06 01:57 36.11935 -86.66648 584 ft 11 kts 18°
2026-05-06 01:57 36.12072 -86.66591 583 ft 28 kts 18°
2026-05-06 01:58 36.12204 -86.66565 575 ft 8 kts 329°
2026-05-06 01:58 36.12225 -86.66616 576 ft 12 kts 290°
2026-05-06 01:58 36.12251 -86.66711 578 ft 9 kts 288°
2026-05-06 01:58 36.12272 -86.66789 579 ft 16 kts 289°
2026-05-06 01:59 36.12316 -86.66905 579 ft 14 kts 305°
2026-05-06 01:59 36.12373 -86.66983 583 ft 11 kts 313°
2026-05-06 01:59 36.12415 -86.67038 582 ft 12 kts 314°
2026-05-06 01:59 36.12576 -86.67251 582 ft 37 kts 313°
2026-05-06 02:00 36.12748 -86.67472 580 ft 35 kts 313°
2026-05-06 02:00 36.12897 -86.67665 581 ft 27 kts 312°
2026-05-06 02:00 36.13017 -86.67826 580 ft 24 kts 313°
2026-05-06 02:00 36.13122 -86.67961 581 ft 15 kts 315°
2026-05-06 02:01 36.13162 -86.68013 584 ft 15 kts 313°
2026-05-06 02:01 36.13234 -86.68108 588 ft 14 kts 313°
2026-05-06 02:01 36.13275 -86.68189 590 ft 6 kts 274°
2026-05-06 02:01 36.13251 -86.68220 586 ft 16 kts 216°
2026-05-06 02:02 36.13151 -86.68265 583 ft 14 kts 198°
2026-05-06 02:02 36.13073 -86.68297 585 ft 10 kts 198°
2026-05-06 02:02 36.13016 -86.68319 586 ft 14 kts 198°
2026-05-06 02:02 36.12909 -86.68360 584 ft 16 kts 197°
2026-05-06 02:03 36.12804 -86.68401 584 ft 15 kts 198°
2026-05-06 02:03 36.12748 -86.68443 581 ft 3 kts 246°
2026-05-06 02:03 36.12740 -86.68511 583 ft 13 kts 268°
2026-05-06 02:03 36.12754 -86.68598 585 ft 7 kts 287°
2026-05-06 02:04 36.12760 -86.68621 582 ft 0 kts 288°
2026-05-06 02:04 36.12760 -86.68622 582 ft 0 kts 288°